Location: Carrières
(48.9495°N, 2.0407°E)
Time: 21:30:15
(UTC+00:00)

NOSS 3-4 (C) - Pass Details

Date: 28 January 2023
Orbit: 830 x 1382 km, 63.4° (Epoch: 19 March)

Event Time Altitude Azimuth Distance (km) Brightness Sun altitude
Rises 17:35:04 0° 317° (NW) 3,758 6.9 -8.9°
Reaches altitude 10° 17:37:32 10° 316° (NW) 2,876 6.3 -9.2°
Maximum altitude 17:44:25 79° 232° (SW) 1,187 4.1 -10.3°
Drops below altitude 10° 17:52:17 10° 147° (SSE) 3,263 6.0 -11.6°
Sets 17:55:15 0° 146° (SSE) 4,290 6.7 -12.0°
